STARLINK-35458, 65925

Orbit data source: Space-Track

STARLINK-35458, 65925 is a payload satellite owned by SpaceX/Seattle (US) in LEO that was launched on Wed, 08 Oct 2025 UTC via an FALCON 9 launch vehicle from the Air Force Western Test Range (AFWTR). Payload-class satellites include a variety of spacecraft equipped with specific instruments for various scientific and technological missions. These include communications satellites like Starlink; space stations such as the ISS; scientific satellites like the Hubble; Earth observation satellites from companies like Planet Labs, Umbra, and HawkEye 360; GPS; miniature CubeSats for education and research; and military/defense satellites.

Loading next visibility...
Identifier
65925, 2025-225R
Orbit
LEO
Country
Flag of USUS
Related business
Manufacturer
SpaceX/Seattle
Mission
Operational Commercial Communications
Bus & Motor
STARLINK V2MO, Unknown motor
Mass
575 kg wet, ~530 kg dry
Launch date (UTC)
2025-10-08 (8 months ago)
Launch vehicle
FALCON 9
Launch site
Air Force Western Test Range (AFWTR)
Object type
Payload
Rocket body
Debris
Shape & HBR
Box + 2 Pan, 17.7 m
Radar Cross Section
36.964 m², Large (>1 m²)

Expand to show TLE details & history
Last TLE update: 12 hours ago

TLE from 12 hours ago
0 STARLINK-35458
1 65925U 25225R   26151.25672014  .00019142  00000-0  65685-3 0  9995
2 65925  53.1568 141.8645 0001589  50.2456 309.8685 15.30195294 37054
Epoch: 2026-05-31T06:09Z
TLE epoch observation values (Epoch: 2026-05-31T06:09:40.620Z)
Latitude
0.00004°
Longitude
160.68428°
Altitude
475.431 km
Speed
7.63 km/s
True Right ascension
09h 27m 27s
True Declination
0° 00' 00"
Sunlit
Object was in daylight at epoch
Visualization orbit readout
Latitude
Unknown
Longitude
Unknown
Altitude
Unknown
Speed
Unknown
Apparent Right ascension
Unknown
Apparent Declination
Unknown
Sunlit
N/A
Visualization observer readout
Local Sidereal Time
04:02:24
Azimuth
Unknown
Elevation
Unknown
Doppler factor
Unknown
Orbital elements
Apogee altitude
476.575 km
Perigee altitude
474.397 km
Semi-major axis
6,853.623 km
Eccentricity
0.00016
Inclination
53.1568°
RAAN
141.8645°
Arg. of periapsis
50.2456°
True anomaly
309.85452°
Mean anomaly
309.8685°
Eccentric anomaly
309.86151°
Mean motion
3.82528 °/min
Orbital period
94.11 mins
BSTAR
0.00065685
Loading maneuver chart data...
Computing Atmospheric mass density...
Loading historical data...
Loading historical data...
Loading historical data...
Loading historical data...
Loading historical data...
Loading historical data...
Loading historical data...

Documentation

Showing up to 5 results
|